Regional Weather Roundup
Issued by NWS

Home | Current Version | Previous Version | Text Only | Print | Product List | Glossary On
Versions: 1 2 3 4 5 6 7 8 9 10 11 12 13 14 15 16 17 18 19 20 21 22 23 24 25 26 27 28 29 30 31 32 33 34 35 36 37 38 39 40 41 42 43 44 45 46 47 48 49 50
000
ASUS43 KMPX 012201
RWRMN
WEATHER ROUNDUP FOR MINNESOTA
NATIONAL WEATHER SERVICE TWIN CITIES/CHANHASSEN MN
500 PM CDT MON SEP 01 2014


NOTE: "FAIR" INDICATES FEW OR NO CLOUDS BELOW 12,000 FEET WITH NO
SIGNIFICANT WEATHER AND/OR OBSTRUCTIONS TO VISIBILITY. N/A MEANS
CURRENT SKY AND/OR WEATHER CONDITIONS ARE NOT AVAILABLE.

MNZ060>063-068>070-012300-
   Twin Cities Metro

CITY           SKY/WX    TMP DP  RH WIND       PRES   REMARKS
TWIN CITIES    MOSUNNY   77  54  44 NW15      29.75S
ST PAUL        PTSUNNY   77  53  43 W17G23    29.75S
CRYSTAL        MOSUNNY   77  53  43 NW15      29.74S
BLAINE         MOSUNNY   77  55  47 W10       29.75S
LAKEVILLE      SUNNY     73  57  56 W9G16     29.77R
EDEN PRAIRIE   MOSUNNY   78  57  48 W9        29.75S
SOUTH ST PAUL  SUNNY     77  52  41 W13G18    29.75S
LAKE ELMO      FAIR      75  55  50 W12       29.76S
$$
MNZ001>005-007-008-013>017-022>024-027-028-012300-
   Northwest Minnesota

CITY           SKY/WX    TMP DP  RH WIND       PRES   REMARKS
BEMIDJI        MOSUNNY   71  50  48 W9        29.72S
HALLOCK        PTSUNNY   68  54  60 W9        29.70R
ROSEAU         PTSUNNY   68  52  56 W8        29.68R
WARROAD        MOSUNNY   70  57  64 W7        29.67S
THIEF RVR FALL CLOUDY    66  52  59 W9        29.73R
CROOKSTON      PTSUNNY   63  55  77 W6        29.74R
FOSSTON        RAIN      61  55  82 W17       29.76R
DETROIT LAKES  PTSUNNY   70  54  56 CALM      29.75F
MOORHEAD       MOSUNNY   77  55  47 W12       29.71F
PARK RAPIDS    PTSUNNY   69  52  54 W8        29.74S
MAHNOMEN       HVY RAIN  59  55  85 SE7       29.73F
$$
MNZ006-009>011-018-025>026-012300-
   North Central Minnesota

CITY           SKY/WX    TMP DP  RH WIND       PRES   REMARKS
BAUDETTE       PTSUNNY   70  51  51 SW7       29.67R
FLAG ISLAND    MOSUNNY   70  55  60 SW10      29.64R
INTL FALLS     SUNNY     69  52  54 NW12G18   29.66S
WASKISH        SUNNY     72  55  56 SW7       29.69S
BIG FORK       MOSUNNY   72  50  46 W10G16    29.70R
LONGVILLE      MOSUNNY   70  52  52 NW6       29.72S
GRAND RAPIDS   SUNNY     70  48  46 W12       29.71S
CRANE LAKE     MOSUNNY   66  54  63 W8        29.67R
ORR            SUNNY     70  48  46 W10       29.65R
COOK           MOSUNNY   70  50  49 W13       29.68R
WALKER         FAIR      71  50  47 W12       29.72S
$$
MNZ012-019>021-037-012300-
   Northeast Minnesota

CITY           SKY/WX    TMP DP  RH WIND       PRES   REMARKS
DULUTH         MOSUNNY   72  52  49 NW10G21   29.69R
ELY            SUNNY     66  55  68 W10       29.65S
HIBBING        MOSUNNY   70  50  49 NW13      29.69R
EVELETH        MOSUNNY   70  52  52 W14       29.69R
DULUTH HARBOR  SUNNY     73  54  49 W16       29.69R
TWO HARBORS    SUNNY     70  54  56 W10G16    29.65R
SILVER BAY     SUNNY     70  59  68 W6        29.63R
GRAND MARAIS     N/A     71  55  56 VRB7      29.59R
G MARAIS ARPRT MOSUNNY   64  54  68 W10G18    29.64R
$$
MNZ029>031-032-039>041-046>048-054>057-064-012300-
   West Central Minnesota

CITY           SKY/WX    TMP DP  RH WIND       PRES   REMARKS
FERGUS FALLS   MOSUNNY   70  55  60 SW6       29.73F
WHEATON        LGT RAIN  66  57  72 SW9       29.77R
MORRIS         LGT RAIN  75  59  57 SW10      29.75S
ALEXANDRIA     MOSUNNY   73  56  54 W14       29.77F
ELBOW LAKE     PTSUNNY   72  57  60 SW6       29.74F
WADENA         MOSUNNY   70  55  60 W7        29.75S THUNDER
GLENWOOD       SUNNY     73  57  56 SW8       29.77F
APPLETON       MOSUNNY   81  54  39 W7        29.75F
BENSON         SUNNY     75  57  53 W8        29.76F
ORTONVILLE     MOSUNNY   79  50  36 W10       29.76S
MADISON        MOSUNNY   79  57  47 W7        29.76F
WILLMAR        FAIR      75  55  50 W8        29.79S
$$
MNZ033>034-036-042>043-049>051-058-059-012300-
   Central Minnesota

CITY           SKY/WX    TMP DP  RH WIND       PRES   REMARKS
ST CLOUD       MOSUNNY   78  53  41 W16       29.75S
SAUK CENTRE    FAIR      73  57  56 W8        29.77S
PAYNESVILLE    SUNNY     71  55  56 SW8       29.78S
AITKIN         SUNNY     73  52  46 W6        29.72R
PINE RIVER     MOSUNNY   72  52  49 W9G16     29.76S
BRAINERD       SUNNY     72  50  45 NW9       29.74R
STAPLES        SUNNY     70  54  56 W7        29.75S THUNDER
LONG PRAIRIE   FAIR      70  54  56 SW7       29.77S
LITTLE FALLS   SUNNY     73  48  40 W8        29.75S
LITCHFIELD     SUNNY     75  55  50 W9        29.78F
BUFFALO        SUNNY     75  54  47 W13       29.77S
MAPLE LAKE     MOSUNNY   76  58  53 W12       29.77S
$$
MNZ037-044-045-052-053-012300-
   East Central Minnesota

CITY           SKY/WX    TMP DP  RH WIND       PRES   REMARKS
PRINCETON      MOSUNNY   77  55  47 W10       29.75S
MORA           SUNNY     72  52  49 W10       29.75S
CAMBRIDGE      MOSUNNY   77  57  50 W10       29.73S
RUSH CITY      MOSUNNY   74  53  48 W10G18    29.74S
MOOSE LAKE     MOSUNNY   72  50  46 NW9       29.70S
HINCKLEY       CLOUDY    73  52  46 W9G17     29.73S
CLOQUET        MOSUNNY   70  50  49 W10G16    29.71R
MCGREGOR       MOSUNNY   72  52  49 NW8       29.73R
$$
MNZ071>073-080-081-089-090-097-098-012300-
   Southwest Minnesota

CITY           SKY/WX    TMP DP  RH WIND       PRES   REMARKS
MONTEVIDEO     SUNNY     81  57  44 W3        29.78S
GRANITE FALLS  SUNNY     75  59  57 SW8       29.79F
CANBY          MOSUNNY   77  55  45 W12       29.79S
MARSHALL       MOSUNNY   77  52  41 NW12G18   29.78F
REDWOOD FALLS  SUNNY     78  55  44 NW9       29.78F
OLIVIA         SUNNY     73  54  49 NW8       29.77F
PIPESTONE      SUNNY     75  54  46 NW8       29.83F
WINDOM         MOSUNNY   75  57  53 NW3       29.82S
WORTHINGTON    SUNNY     75  57  53 NW14      29.84F
JACKSON        MOSUNNY   72  54  53 CALM      29.84F
TRACY          MOSUNNY   78  57  48 CALM      29.81S
SLAYTON        MOSUNNY   75  53  44 CALM      29.83S
$$
MNZ065>067-074>077-082>085-091>093-012300-
   South Central Minnesota

CITY           SKY/WX    TMP DP  RH WIND       PRES   REMARKS
MANKATO        PTSUNNY   73  55  53 W10       29.79S
NEW ULM        MOSUNNY   75  57  53 NW13      29.79S
FAIRMONT       PTSUNNY   64  55  72 SW7       29.83S
GLENCOE        MOSUNNY   75  56  50 W13       29.77F
FARIBAULT      MOSUNNY   75  55  50 W8        29.79S
OWATONNA       MOSUNNY   73  55  53 W10       29.80S
WASECA         MOSUNNY   72  54  53 W5        29.81S
ALBERT LEA     SUNNY     75  55  50 NW8       29.80S
$$
MNZ078>079-086>088-094>096-012300-
   Southeast Minnesota

CITY           SKY/WX    TMP DP  RH WIND       PRES   REMARKS
ROCHESTER      MOSUNNY   74  56  53 W12       29.80R
RED WING       MOSUNNY   79  54  41 W13       29.74R
STANTON        MOSUNNY   74  58  57 W8        29.76R
DODGE CENTER   SUNNY     75  57  53 W20       29.80S
WINONA         MOSUNNY   77  59  53 NW12      29.75R
AUSTIN         SUNNY     73  55  53 NW12      29.80R
PRESTON        MOSUNNY   73  64  71 W7        29.80R
$$
ABBREVIATIONS USED IN REMARKS
   TC - TEMPERATURES IN CELSIUS
  WCI - WIND CHILL INDEX
   HX - HEAT INDEX
  VSB - VISIBILITY
$$


USA.gov is the U.S. government's official web portal to all federal, state and local government web resources and services.